STARLINK-11667 [DTC]

Last updated on Wed May 14 2025 00:02:03 GMT+0000 (Coordinated Universal Time)

1 63550U 25075C 25133.55114495 .00000394 00000+0 51251-5 0 9990 2 63550 43.0009 164.8279 0000753 300.6209 59.4587 15.77859786 6028
UTC large
Height (km)
Speed (km/s)
/
Latitude / Longitude
Inclination (degrees)
Orbital Period (minutes)
Azimuth
Elevation
Range (km)
Doppler Factor

Next 0 passes for location: London (51.5072 / 0.1276)

Sorry there are no passes over London.